[[{"header":{"parameterUnit":"m.s-1","parameterCategory":2,"la1":30.2991,"la2":30.254,"lo1":-89.0895,"lo2":-89.0444,"dy":0.0017,"dx":0.0017,"nx":28,"ny":28,"refTime":"2023-08-31T21:00:00:Z","depth":"0","parameterNumber":2,"parameterNumberName":"U-component_of_CURRENTS"},"data":[0,0,0,0,0,0,0,0,0,0,0,0,0,0,0,0,0,0,0,0,0,0,0,0,0,0,0,0,0,0,0,0,0,0,0,0,0,0,0,0,0,0,0,0,0,0,0,0,0,0,0,0,0,0,0,0,0,0,-0.2211,-0.2212,0,-0.2214,-0.2214,-0.2214,-0.2185,-0.2184,-0.2184,-0.2183,-0.2112,-0.2111,-0.2109,0,0,0,0,0,0,0,0,0,0,0,0,0,-0.2179,-0.2179,-0.2211,-0.2212,-0.2212,-0.2214,-0.2214,-0.2214,-0.2185,-0.2184,-0.2183,-0.2183,-0.2112,-0.2111,-0.2109,0,0,0,0,0,0,0,0,0,0,0,0,0,-0.2186,-0.2179,-0.2211,-0.2199,-0.2199,-0.2214,-0.2214,-0.2214,-0.2185,-0.2184,-0.2183,-0.2182,-0.2113,-0.2111,-0.2109,-0.2114,0,0,-0.2103,-0.2102,0,0,0,0,0,0,0,0,-0.2186,-0.2187,-0.2201,-0.22,-0.2199,-0.22,-0.2177,-0.2178,-0.2185,-0.2188,-0.2183,-0.2182,-0.2137,-0.2133,-0.2133,-0.2111,-0.2108,-0.2103,-0.2101,-0.21,-0.21,0,0,0,0,0,0,0,-0.2185,-0.2187,-0.221,-0.2201,-0.2201,-0.2193,-0.2193,-0.2177,-0.2164,-0.2187,-0.2186,-0.219,-0.2135,-0.2135,-0.2131,-0.2106,-0.2103,-0.2101,-0.21,-0.2099,-0.2085,-0.2086,0,0,0,0,0,0,-0.2191,-0.2186,-0.221,-0.221,-0.2193,-0.2195,-0.2195,-0.2199,-0.2166,-0.2161,-0.2191,-0.2189,-0.2139,-0.2133,-0.2128,-0.2123,-0.21,-0.2099,-0.2097,-0.2084,-0.2085,-0.2086,0,0,0,0,0,0,-0.219,-0.2193,-0.221,-0.22,-0.2202,-0.2197,-0.2202,-0.22,-0.2196,-0.217,-0.2163,-0.2189,-0.2138,-0.2131,-0.2118,-0.212,-0.2098,-0.2096,-0.2083,-0.2084,-0.2085,-0.2118,0,0,0,0,0,0,-0.2189,-0.2193,-0.2193,-0.2201,-0.2203,-0.2215,-0.2203,-0.22,-0.2201,-0.2198,-0.2166,-0.2159,-0.2137,-0.2121,-0.2116,-0.2117,-0.2094,-0.2082,-0.2084,-0.2085,-0.2116,-0.212,-0.2124,0,0,0,0,0,-0.2188,-0.2192,-0.2193,-0.2196,-0.2205,-0.2216,-0.2216,-0.2207,-0.2202,-0.22,-0.2185,-0.2159,-0.2127,-0.212,-0.2114,-0.2114,-0.2081,-0.2083,-0.2085,-0.2114,-0.2119,-0.2123,0,0,0,0,0,0,-0.2173,-0.219,-0.2191,-0.2198,-0.2206,-0.2212,-0.221,-0.2211,-0.22,-0.2194,-0.2168,-0.2161,-0.215,-0.2134,-0.2127,-0.2118,-0.2101,-0.2101,-0.2125,-0.213,-0.2134,-0.2135,-0.2093,0,0,0,0,0,-0.2174,-0.2178,-0.2195,-0.2197,-0.2205,-0.2209,-0.2212,-0.221,-0.2206,-0.2201,-0.2182,-0.2166,-0.2156,-0.2143,-0.213,-0.2123,-0.2103,-0.2121,-0.2125,-0.2128,-0.2127,-0.2112,-0.2114,-0.2092,-0.2092,-0.2092,0,0,-0.2166,-0.2177,-0.2177,-0.2194,-0.2199,-0.2213,-0.2207,-0.2213,-0.222,-0.2194,-0.2189,-0.2177,-0.2159,-0.2153,-0.2146,-0.2135,-0.2125,-0.2131,-0.2134,-0.213,-0.2114,-0.2116,-0.2118,-0.2093,-0.2093,-0.2093,0,0,-0.2155,-0.2166,-0.2168,-0.2183,-0.2198,-0.2209,-0.2214,-0.2223,-0.2221,-0.2223,-0.2209,-0.2203,-0.2182,-0.2173,-0.2166,-0.2186,-0.2149,-0.2181,-0.2195,-0.2181,-0.2183,-0.2184,-0.2158,-0.2157,-0.218,-0.218,-0.218,0,-0.2145,-0.2155,-0.2169,-0.2182,-0.2194,-0.221,-0.2221,-0.223,-0.2232,-0.2232,-0.2222,-0.2209,-0.2193,-0.2192,-0.22,-0.2193,-0.2174,-0.2176,-0.2185,-0.2186,-0.2186,-0.216,-0.2158,-0.2181,-0.2181,-0.2181,-0.2181,0,-0.2139,-0.2153,-0.2157,-0.2182,-0.2198,-0.2209,-0.2234,-0.2244,-0.2248,-0.2252,-0.225,-0.2236,-0.2226,-0.2225,-0.2216,-0.2216,-0.2198,-0.2193,-0.217,-0.219,-0.2162,-0.2159,-0.2184,-0.2183,-0.2183,-0.2182,0,0,-0.2091,-0.2143,-0.2141,-0.216,-0.2199,-0.2211,-0.2237,-0.2259,-0.2273,-0.2271,-0.2275,-0.2269,-0.2261,-0.2254,-0.2243,-0.2234,-0.2223,-0.2216,-0.2214,-0.2185,-0.218,-0.2105,-0.2094,-0.2216,-0.2216,-0.2216,-0.2157,0,-0.2078,-0.2106,-0.2134,-0.2161,-0.2182,-0.2217,-0.224,-0.2264,-0.228,-0.2291,-0.2283,-0.228,-0.2273,-0.2265,-0.2258,-0.2236,-0.2217,-0.2238,-0.2169,-0.2167,-0.2094,-0.2089,-0.1988,-0.1922,-0.2154,-0.2153,-0.2153,0,-0.2054,-0.2081,-0.2106,-0.2163,-0.2173,-0.2191,-0.2235,-0.2259,-0.2289,-0.2295,-0.2299,-0.2297,-0.229,-0.2277,-0.2241,-0.2254,-0.2217,-0.2196,-0.2193,-0.2108,-0.2086,-0.194,-0.1907,-0.1884,-0.2148,-0.2149,-0.2149,0,-0.2007,-0.2058,-0.2078,-0.2096,-0.2162,-0.2175,-0.2206,-0.2249,-0.2268,-0.2293,-0.2299,-0.2299,-0.2283,-0.2258,-0.2217,-0.2227,-0.2166,-0.2174,-0.2069,-0.2063,-0.1955,-0.1939,-0.1884,-0.2136,-0.2136,-0.2136,-0.2136,0,-0.1981,-0.1992,-0.2058,-0.2068,-0.2088,-0.2146,-0.2168,-0.2201,-0.2244,-0.2249,-0.2289,-0.2281,-0.2276,-0.2247,-0.2215,-0.2124,-0.2159,-0.2062,-0.204,-0.1963,-0.195,-0.1907,-0.193,-0.2134,-0.2134,-0.2135,-0.2135,0,-0.1915,-0.1964,-0.1986,-0.2049,-0.2066,-0.2075,-0.2135,-0.2152,-0.2206,-0.2213,-0.2216,-0.2254,-0.221,-0.2193,-0.214,-0.2098,-0.1989,-0.1991,-0.1894,-0.1862,-0.1742,-0.1772,-0.1699,-0.1655,-0.1869,-0.1867,-0.1865,0,-0.188,-0.1888,-0.1947,-0.1954,-0.1975,-0.2007,-0.2024,-0.2104,-0.2123,-0.218,-0.2169,-0.216,-0.2113,-0.2028,-0.1954,-0.1867,-0.1883,-0.1735,-0.1737,-0.1709,-0.1727,-0.176,-0.1732,-0.1608,-0.1604,-0.1601,-0.1598,0,-0.1797,-0.1818,-0.1833,-0.1856,-0.1874,-0.1898,-0.1933,-0.1953,-0.2031,-0.2037,-0.2028,-0.2004,-0.1936,-0.1805,-0.1716,-0.1664,-0.1687,-0.1666,-0.1662,-0.1532,-0.154,-0.1495,-0.1679,-0.157,-0.1573,-0.1575,-0.1577,-0.1578,-0.171,-0.1701,-0.1723,-0.1728,-0.1752,-0.1759,-0.1735,-0.1785,-0.1787,-0.1767,-0.1834,-0.1744,-0.1684,-0.1539,-0.1493,-0.1381,-0.1461,-0.1338,-0.138,-0.1419,-0.1363,-0.1478,-0.1333,-0.1335,-0.1336,-0.1337,-0.1338,0,-0.1587,-0.1589,-0.1594,-0.1594,-0.1564,-0.1621,-0.1638,-0.159,-0.1537,-0.1557,-0.1511,-0.1415,-0.1303,-0.1278,-0.1181,-0.1115,-0.1114,-0.1103,-0.1135,-0.1123,-0.1225,-0.1198,-0.0987,-0.0987,-0.0987,-0.0987,-0.0987,-0.0987,-0.1521,-0.1476,-0.1482,-0.139,-0.1389,-0.1303,-0.128,-0.1234,-0.122,-0.1123,-0.1073,-0.1062,-0.1067,-0.1127,-0.1049,-0.1001,-0.1002,-0.0956,-0.101,-0.1095,-0.1122,-0.1147,-0.1125,-0.0902,-0.0902,-0.0849,-0.0849,-0.0849]},{"header":{"parameterUnit":"m.s-1","parameterCategory":2,"la1":30.2991,"la2":30.254,"lo1":-89.0895,"lo2":-89.0444,"dy":0.0017,"dx":0.0017,"nx":28,"ny":28,"refTime":"2023-08-31T21:00:00:Z","depth":"0","parameterNumber":3,"parameterNumberName":"V-component_of_CURRENTS"},"data":[0,0,0,0,0,0,0,0,0,0,0,0,0,0,0,0,0,0,0,0,0,0,0,0,0,0,0,0,0,0,0,0,0,0,0,0,0,0,0,0,0,0,0,0,0,0,0,0,0,0,0,0,0,0,0,0,0,0,-0.0165,-0.0164,0,-0.0086,-0.0085,-0.0085,-0.004,-0.004,-0.004,-0.0039,0.0068,0.0071,0.0074,0,0,0,0,0,0,0,0,0,0,0,0,0,-0.0234,-0.0233,-0.0165,-0.0164,-0.0163,-0.0087,-0.0085,-0.0084,-0.004,-0.004,-0.004,-0.0039,0.0067,0.007,0.0074,0,0,0,0,0,0,0,0,0,0,0,0,0,-0.0184,-0.0233,-0.0165,-0.0132,-0.0129,-0.0087,-0.0085,-0.0084,-0.004,-0.004,-0.004,-0.0039,0.0066,0.007,0.0074,0.0097,0,0,0.0087,0.0089,0,0,0,0,0,0,0,0,-0.0187,-0.0181,-0.0138,-0.0135,-0.013,-0.0073,-0.007,-0.0022,-0.004,-0.0073,-0.0039,-0.0039,0.0023,0.0031,0.0046,0.0102,0.0107,0.0087,0.009,0.0092,0.0093,0,0,0,0,0,0,0,-0.019,-0.0184,-0.0133,-0.0137,-0.0132,-0.0107,-0.01,-0.0061,-0.0025,-0.007,-0.0067,-0.0059,0.0025,0.0042,0.0049,0.0109,0.0087,0.0091,0.0094,0.0095,0.0197,0.0197,0,0,0,0,0,0,-0.0204,-0.0188,-0.0136,-0.0131,-0.016,-0.0106,-0.0098,-0.0091,-0.0026,-0.0017,-0.0059,-0.0057,0.0034,0.0044,0.0053,0.008,0.0092,0.0096,0.0098,0.0197,0.0197,0.0197,0,0,0,0,0,0,-0.0206,-0.02,-0.0139,-0.0158,-0.0149,-0.0105,-0.0098,-0.009,-0.0075,-0.0019,-0.0009,-0.0053,0.0035,0.0047,0.0087,0.0085,0.0097,0.0101,0.0196,0.0197,0.0197,0.0138,0,0,0,0,0,0,-0.0208,-0.0201,-0.0203,-0.0159,-0.0148,-0.0121,-0.0098,-0.0088,-0.0071,-0.0067,-0.001,0.0,0.0036,0.008,0.0091,0.0091,0.0105,0.0196,0.0196,0.0197,0.0139,0.0136,0.0133,0,0,0,0,0,-0.0211,-0.0214,-0.0203,-0.0197,-0.0151,-0.0121,-0.0113,-0.0081,-0.0071,-0.0067,-0.0026,-0.0002,0.009,0.0084,0.0096,0.0097,0.0196,0.0196,0.0197,0.0141,0.0136,0.0133,0,0,0,0,0,0,-0.0242,-0.0208,-0.0196,-0.0188,-0.0161,-0.0114,-0.0108,-0.0086,-0.0051,-0.0048,0.0004,0.0017,0.0049,0.0084,0.0075,0.0128,0.0146,0.0149,0.0099,0.0096,0.0093,0.0078,0.0108,0,0,0,0,0,-0.0252,-0.0246,-0.0208,-0.0203,-0.0192,-0.0151,-0.0136,-0.0115,-0.0078,-0.0062,-0.0022,0.0023,0.0061,0.0085,0.0123,0.0155,0.0186,0.0164,0.0161,0.0158,0.0155,0.02,0.02,0.0198,0.0198,0.0198,0,0,-0.0262,-0.0243,-0.0239,-0.0209,-0.0186,-0.0176,-0.0142,-0.0123,-0.0113,-0.0055,-0.003,0.0011,0.0066,0.0099,0.0117,0.0128,0.0174,0.0158,0.0155,0.0154,0.02,0.02,0.02,0.0199,0.0199,0.0199,0,0,-0.0285,-0.0265,-0.027,-0.0252,-0.0224,-0.0197,-0.0196,-0.0153,-0.0132,-0.0101,-0.0059,-0.0018,0.004,0.0081,0.0109,0.0113,0.0151,0.0123,0.01,0.0143,0.0143,0.0144,0.0175,0.0179,0.0126,0.0126,0.0126,0,-0.03,-0.0302,-0.0267,-0.0269,-0.0262,-0.0212,-0.0218,-0.0186,-0.0135,-0.0117,-0.0103,-0.0013,0.0032,0.0079,0.008,0.0105,0.0131,0.0107,0.0138,0.0139,0.0141,0.0173,0.0178,0.0123,0.0123,0.0124,0.0124,0,-0.0326,-0.0329,-0.0331,-0.0319,-0.0305,-0.0301,-0.0258,-0.0235,-0.0204,-0.0169,-0.012,-0.0056,-0.0002,0.0019,0.0052,0.0087,0.0101,0.0123,0.0142,0.0137,0.0171,0.0178,0.0119,0.012,0.0121,0.0121,0,0,-0.0356,-0.0353,-0.0355,-0.0365,-0.0334,-0.0327,-0.0306,-0.0271,-0.0255,-0.0199,-0.0173,-0.0102,-0.0063,-0.0029,0.0022,0.0063,0.0096,0.0092,0.0096,0.0114,0.0181,0.0229,0.0241,0.012,0.0121,0.0122,0.0198,0,-0.0389,-0.042,-0.0401,-0.0423,-0.0435,-0.0388,-0.0377,-0.0337,-0.0288,-0.0245,-0.0168,-0.0123,-0.0081,-0.0055,-0.0008,0.0074,0.0111,0.0073,0.0193,0.0196,0.0232,0.0249,0.0289,0.0364,0.0204,0.0205,0.0206,0,-0.0421,-0.0441,-0.0478,-0.0487,-0.0487,-0.0485,-0.0457,-0.0435,-0.0356,-0.0318,-0.0251,-0.0187,-0.0108,-0.0077,0.0052,0.0024,0.0092,0.0152,0.0157,0.0227,0.0256,0.0348,0.0382,0.0492,0.0216,0.0215,0.0215,0,-0.0471,-0.0491,-0.0528,-0.0531,-0.0529,-0.0529,-0.0517,-0.0458,-0.0439,-0.0354,-0.0326,-0.0226,-0.0169,-0.0072,0.0062,0.0054,0.0202,0.021,0.0314,0.0318,0.039,0.0399,0.0539,0.0289,0.0289,0.0289,0.0288,0,-0.0517,-0.0543,-0.0555,-0.0577,-0.0614,-0.0585,-0.0592,-0.0558,-0.05,-0.047,-0.0367,-0.0312,-0.0165,-0.0055,0.0051,0.0212,0.0197,0.0315,0.0347,0.037,0.0376,0.0506,0.0542,0.0291,0.0291,0.029,0.029,0,-0.0564,-0.0573,-0.0617,-0.0634,-0.0641,-0.0663,-0.0653,-0.0649,-0.0585,-0.0537,-0.0513,-0.0373,-0.0217,-0.0066,0.0109,0.0204,0.0425,0.0401,0.0415,0.0447,0.064,0.067,0.0826,0.0903,0.0523,0.0525,0.0526,0,-0.0591,-0.0621,-0.0668,-0.07,-0.0709,-0.0731,-0.0746,-0.07,-0.0683,-0.0564,-0.0544,-0.0382,-0.0238,0.0039,0.0237,0.0439,0.051,0.0573,0.0571,0.0668,0.0724,0.0731,0.0784,0.0638,0.0641,0.0643,0.0644,0,-0.0642,-0.0658,-0.0697,-0.0768,-0.0799,-0.083,-0.0835,-0.0834,-0.0758,-0.0687,-0.055,-0.0418,-0.0126,0.0154,0.0411,0.0522,0.0665,0.0616,0.0724,0.0836,0.0847,0.093,0.0558,0.066,0.0659,0.0658,0.0657,0.0656,-0.067,-0.0715,-0.0768,-0.083,-0.0872,-0.0906,-0.0912,-0.0875,-0.0823,-0.0667,-0.0556,-0.0279,0.0085,0.0479,0.0604,0.0873,0.082,0.0939,0.0969,0.0967,0.1046,0.0705,0.0838,0.0838,0.0837,0.0837,0.0836,0,-0.0703,-0.0756,-0.0825,-0.0894,-0.0943,-0.0949,-0.0954,-0.0911,-0.0817,-0.0612,-0.043,0.0066,0.0418,0.0739,0.1099,0.1224,0.1242,0.1269,0.1293,0.1332,0.1047,0.1058,0.1238,0.1238,0.1238,0.1238,0.1238,0.1238,-0.0722,-0.0797,-0.084,-0.0933,-0.0974,-0.0996,-0.0986,-0.0879,-0.0718,-0.0356,-0.0012,0.0271,0.0717,0.1201,0.1516,0.153,0.164,0.1607,0.1671,0.1474,0.1445,0.1417,0.1439,0.1695,0.1696,0.1954,0.1957,0.1959]}],[{"header":{"parameterUnit":"m.s-1","parameterCategory":2,"la1":30.2991,"la2":30.254,"lo1":-89.0895,"lo2":-89.0444,"dy":0.0017,"dx":0.0017,"nx":28,"ny":28,"refTime":"2023-08-31T21:00:00:Z","depth":"2","parameterNumber":2,"parameterNumberName":"U-component_of_CURRENTS"},"data":[0,0,0,0,0,0,0,0,0,0,0,0,0,0,0,0,0,0,0,0,0,0,0,0,0,0,0,0,0,0,0,0,0,0,0,0,0,0,0,0,0,0,0,0,0,0,0,0,0,0,0,0,0,0,0,0,0,0,-0.2012,-0.2012,0,-0.2019,-0.2019,-0.2019,-0.2,-0.1999,-0.1999,-0.1999,-0.1948,-0.1947,-0.1946,0,0,0,0,0,0,0,0,0,0,0,0,0,-0.1983,-0.1984,-0.2012,-0.2013,-0.2013,-0.2019,-0.2019,-0.2019,-0.2,-0.1999,-0.1999,-0.1998,-0.1948,-0.1947,-0.1946,0,0,0,0,0,0,0,0,0,0,0,0,0,-0.1992,-0.1984,-0.2012,-0.2005,-0.2005,-0.2019,-0.2019,-0.2019,-0.2,-0.1999,-0.1999,-0.1998,-0.1949,-0.1947,-0.1946,-0.195,0,0,-0.1941,-0.1941,0,0,0,0,0,0,0,0,-0.1991,-0.1993,-0.2006,-0.2006,-0.2005,-0.201,-0.1991,-0.1994,-0.2,-0.2,-0.1999,-0.1998,-0.1965,-0.1962,-0.1963,-0.1947,-0.1945,-0.1941,-0.194,-0.194,-0.1939,0,0,0,0,0,0,0,-0.1991,-0.1992,-0.2013,-0.2006,-0.2006,-0.2003,-0.2003,-0.1991,-0.1983,-0.2,-0.1999,-0.2003,-0.1964,-0.1964,-0.1961,-0.1944,-0.1941,-0.194,-0.1939,-0.1939,-0.194,-0.1941,0,0,0,0,0,0,-0.1995,-0.1992,-0.2013,-0.2014,-0.1999,-0.2004,-0.2004,-0.2007,-0.1985,-0.1982,-0.2004,-0.2002,-0.1967,-0.1963,-0.196,-0.1964,-0.194,-0.1938,-0.1938,-0.1939,-0.194,-0.1941,0,0,0,0,0,0,-0.1994,-0.1996,-0.2013,-0.2004,-0.2006,-0.2005,-0.2009,-0.2008,-0.2008,-0.1989,-0.1984,-0.2005,-0.1967,-0.1962,-0.1956,-0.1961,-0.1938,-0.1936,-0.1938,-0.1939,-0.1941,-0.1971,0,0,0,0,0,0,-0.1993,-0.1996,-0.1997,-0.2005,-0.2007,-0.202,-0.201,-0.2009,-0.2013,-0.2011,-0.1988,-0.1983,-0.1966,-0.1958,-0.1954,-0.1959,-0.1935,-0.1937,-0.1939,-0.194,-0.1969,-0.1973,-0.1977,0,0,0,0,0,-0.1992,-0.1995,-0.1997,-0.1999,-0.2009,-0.2021,-0.2021,-0.2017,-0.2013,-0.2014,-0.2005,-0.1984,-0.1966,-0.1958,-0.1953,-0.1957,-0.1936,-0.1938,-0.194,-0.1967,-0.1972,-0.1977,0,0,0,0,0,0,-0.1979,-0.1994,-0.1996,-0.2002,-0.2011,-0.2018,-0.2018,-0.2021,-0.2016,-0.2012,-0.1993,-0.1987,-0.1985,-0.1972,-0.1963,-0.1965,-0.1948,-0.195,-0.1971,-0.1975,-0.1979,-0.198,-0.1934,0,0,0,0,0,-0.198,-0.1983,-0.2,-0.2002,-0.2009,-0.2016,-0.202,-0.2021,-0.2021,-0.2018,-0.2006,-0.1996,-0.1992,-0.1984,-0.1975,-0.1974,-0.1956,-0.1976,-0.198,-0.1983,-0.1983,-0.1972,-0.1974,-0.1948,-0.1948,-0.1948,0,0,-0.1973,-0.1983,-0.1983,-0.2,-0.2005,-0.202,-0.2016,-0.2024,-0.2034,-0.2013,-0.2016,-0.2008,-0.1996,-0.1996,-0.1994,-0.1983,-0.1982,-0.1986,-0.1989,-0.1986,-0.1974,-0.1977,-0.1979,-0.1949,-0.1949,-0.1949,0,0,-0.1965,-0.1975,-0.1977,-0.1992,-0.2008,-0.2019,-0.2025,-0.2037,-0.2038,-0.2046,-0.2037,-0.2036,-0.2025,-0.202,-0.2016,-0.2039,-0.2005,-0.2036,-0.2051,-0.2041,-0.2043,-0.2044,-0.202,-0.2019,-0.2035,-0.2035,-0.2035,0,-0.1957,-0.1966,-0.1979,-0.1992,-0.2005,-0.2022,-0.2034,-0.2045,-0.2053,-0.2057,-0.2049,-0.2048,-0.2037,-0.2042,-0.2051,-0.2046,-0.2029,-0.2032,-0.2045,-0.2046,-0.2047,-0.2022,-0.2021,-0.2037,-0.2037,-0.2036,-0.2036,0,-0.1953,-0.1967,-0.1972,-0.1996,-0.2012,-0.2026,-0.2051,-0.2065,-0.2073,-0.208,-0.2086,-0.2078,-0.2075,-0.2076,-0.2069,-0.2074,-0.2056,-0.2052,-0.203,-0.2051,-0.2024,-0.2022,-0.2039,-0.2039,-0.2038,-0.2038,0,0,-0.1911,-0.196,-0.1959,-0.1978,-0.2017,-0.2029,-0.2058,-0.2084,-0.21,-0.2105,-0.2115,-0.2117,-0.2111,-0.2107,-0.21,-0.2093,-0.2086,-0.2076,-0.2075,-0.2047,-0.2051,-0.1974,-0.1964,-0.2081,-0.2081,-0.2081,-0.2027,0,-0.1901,-0.1928,-0.1955,-0.1984,-0.2004,-0.2041,-0.2067,-0.2093,-0.2113,-0.2128,-0.2127,-0.2131,-0.2124,-0.212,-0.2117,-0.2098,-0.2082,-0.21,-0.2039,-0.2037,-0.1961,-0.196,-0.1819,-0.1754,-0.2025,-0.2024,-0.2024,0,-0.188,-0.1906,-0.1933,-0.1989,-0.1999,-0.2021,-0.2067,-0.2093,-0.2128,-0.2138,-0.2148,-0.2149,-0.2148,-0.2136,-0.2108,-0.2118,-0.2085,-0.2066,-0.2063,-0.1978,-0.1956,-0.1778,-0.1739,-0.202,-0.202,-0.2021,-0.2021,0,-0.1837,-0.1887,-0.1909,-0.1927,-0.1993,-0.2009,-0.2041,-0.2088,-0.2109,-0.214,-0.215,-0.2156,-0.2146,-0.2124,-0.2088,-0.2097,-0.2044,-0.2051,-0.1948,-0.1942,-0.1803,-0.1784,-0.2019,-0.2019,-0.2019,-0.2019,-0.202,0,-0.1813,-0.1827,-0.1892,-0.1903,-0.1928,-0.1983,-0.2011,-0.2046,-0.2093,-0.2103,-0.2144,-0.2141,-0.2142,-0.2117,-0.2087,-0.2001,-0.2039,-0.1942,-0.1921,-0.1809,-0.1793,-0.2012,-0.2011,-0.2017,-0.2018,-0.2018,-0.2019,0,-0.1752,-0.18,-0.1825,-0.1889,-0.1907,-0.192,-0.1984,-0.2003,-0.206,-0.2074,-0.208,-0.2121,-0.2082,-0.2068,-0.2021,-0.198,-0.1921,-0.1878,-0.1739,-0.1703,-0.1827,-0.183,-0.1763,-0.176,-0.1758,-0.1755,-0.1753,0,-0.172,-0.1729,-0.179,-0.18,-0.1825,-0.1861,-0.1882,-0.1962,-0.1983,-0.2045,-0.2037,-0.2034,-0.1989,-0.1908,-0.1834,-0.1749,-0.1826,-0.1583,-0.1577,-0.1814,-0.1801,-0.1807,-0.1813,-0.1404,-0.14,-0.1396,-0.1393,0,-0.1645,-0.1668,-0.1685,-0.1713,-0.1735,-0.1762,-0.1801,-0.1822,-0.1901,-0.1909,-0.1904,-0.188,-0.1813,-0.166,-0.1572,-0.1517,-0.1591,-0.1503,-0.1774,-0.1495,-0.1472,-0.1461,-0.1478,-0.1359,-0.1363,-0.1365,-0.1367,-0.1368,-0.1568,-0.1562,-0.1587,-0.1598,-0.1626,-0.1636,-0.1615,-0.1664,-0.1667,-0.1648,-0.1712,-0.1608,-0.1598,-0.137,-0.1292,-0.1236,-0.135,-0.1299,-0.1312,-0.1328,-0.1301,-0.1274,-0.1119,-0.1121,-0.1122,-0.1124,-0.1125,0,-0.1458,-0.1462,-0.147,-0.1478,-0.1455,-0.1511,-0.1528,-0.1482,-0.143,-0.1434,-0.1387,-0.1214,-0.1107,-0.11,-0.0949,-0.0927,-0.0938,-0.0901,-0.0915,-0.0948,-0.0977,-0.0934,-0.0653,-0.0652,-0.0651,-0.065,0,0,-0.14,-0.1361,-0.1366,-0.129,-0.1294,-0.1218,-0.1196,-0.1148,-0.112,-0.1026,-0.0959,-0.1016,-0.1043,-0.0835,-0.08,-0.0695,-0.0816,-0.0662,-0.1039,-0.1086,-0.1114,-0.1202,-0.1171,0,0,0,0,0]},{"header":{"parameterUnit":"m.s-1","parameterCategory":2,"la1":30.2991,"la2":30.254,"lo1":-89.0895,"lo2":-89.0444,"dy":0.0017,"dx":0.0017,"nx":28,"ny":28,"refTime":"2023-08-31T21:00:00:Z","depth":"2","parameterNumber":3,"parameterNumberName":"V-component_of_CURRENTS"},"data":[0,0,0,0,0,0,0,0,0,0,0,0,0,0,0,0,0,0,0,0,0,0,0,0,0,0,0,0,0,0,0,0,0,0,0,0,0,0,0,0,0,0,0,0,0,0,0,0,0,0,0,0,0,0,0,0,0,0,-0.0248,-0.0247,0,-0.0182,-0.0181,-0.018,-0.0141,-0.0141,-0.0141,-0.0141,-0.0042,-0.004,-0.0037,0,0,0,0,0,0,0,0,0,0,0,0,0,-0.03,-0.03,-0.0248,-0.0247,-0.0247,-0.0182,-0.0181,-0.018,-0.0141,-0.0141,-0.0141,-0.0141,-0.0043,-0.004,-0.0037,0,0,0,0,0,0,0,0,0,0,0,0,0,-0.026,-0.03,-0.0248,-0.022,-0.0217,-0.0182,-0.0181,-0.018,-0.0141,-0.0141,-0.0141,-0.014,-0.0044,-0.004,-0.0037,-0.0017,0,0,-0.0025,-0.0023,0,0,0,0,0,0,0,0,-0.0262,-0.0258,-0.0225,-0.0222,-0.0218,-0.017,-0.0163,-0.0124,-0.0141,-0.0169,-0.0141,-0.014,-0.0083,-0.0076,-0.0063,-0.0012,-0.0008,-0.0025,-0.0022,-0.0021,-0.002,0,0,0,0,0,0,0,-0.0265,-0.026,-0.0221,-0.0224,-0.022,-0.0197,-0.0191,-0.0156,-0.0126,-0.0166,-0.0164,-0.0157,-0.008,-0.0067,-0.006,-0.0006,-0.0025,-0.0022,-0.0019,-0.0018,0.0075,0.0075,0,0,0,0,0,0,-0.0277,-0.0263,-0.0223,-0.0219,-0.0241,-0.0196,-0.019,-0.0185,-0.0127,-0.0119,-0.0158,-0.0156,-0.0073,-0.0065,-0.0057,-0.0029,-0.0021,-0.0017,-0.0015,0.0075,0.0075,0.0075,0,0,0,0,0,0,-0.0278,-0.0274,-0.0226,-0.024,-0.0232,-0.0196,-0.0191,-0.0184,-0.0171,-0.0121,-0.0112,-0.0152,-0.0073,-0.0062,-0.0025,-0.0025,-0.0016,-0.0012,0.0075,0.0075,0.0075,0.0027,0,0,0,0,0,0,-0.028,-0.0275,-0.0277,-0.0241,-0.0232,-0.0211,-0.0191,-0.0183,-0.0168,-0.0165,-0.0113,-0.0104,-0.0072,-0.0031,-0.0022,-0.0019,-0.0009,0.0075,0.0075,0.0075,0.0028,0.0026,0.0023,0,0,0,0,0,-0.0282,-0.0287,-0.0278,-0.0273,-0.0236,-0.0211,-0.0204,-0.0177,-0.0168,-0.0165,-0.0128,-0.0106,-0.0022,-0.0028,-0.0017,-0.0013,0.0074,0.0075,0.0075,0.0029,0.0026,0.0023,0,0,0,0,0,0,-0.0309,-0.0282,-0.0272,-0.0267,-0.0244,-0.0205,-0.02,-0.0182,-0.015,-0.0147,-0.0101,-0.0089,-0.0059,-0.0028,-0.0036,0.0015,0.0029,0.0032,-0.0009,-0.0012,-0.0015,-0.0028,-0.0006,0,0,0,0,0,-0.0318,-0.0315,-0.0283,-0.028,-0.0271,-0.0237,-0.0225,-0.0206,-0.0173,-0.016,-0.0123,-0.0083,-0.0048,-0.0025,0.0009,0.004,0.0069,0.005,0.0047,0.0045,0.0042,0.0088,0.009,0.0077,0.0077,0.0077,0,0,-0.0327,-0.0313,-0.031,-0.0286,-0.0266,-0.0258,-0.0229,-0.0214,-0.0204,-0.0153,-0.0129,-0.0093,-0.0043,-0.0011,0.0006,0.0016,0.0063,0.0045,0.0043,0.0042,0.0089,0.009,0.0091,0.0077,0.0077,0.0077,0,0,-0.0347,-0.0333,-0.0338,-0.0323,-0.0299,-0.0276,-0.0275,-0.0238,-0.0219,-0.0191,-0.0153,-0.0116,-0.0063,-0.0024,0.0002,0.0007,0.0043,0.0016,-0.0,0.0044,0.0045,0.0047,0.0078,0.0082,0.002,0.002,0.002,0,-0.0361,-0.0364,-0.0336,-0.0338,-0.0332,-0.0289,-0.0294,-0.0265,-0.0221,-0.0203,-0.0191,-0.011,-0.0069,-0.0023,-0.0021,0.0001,0.0027,0.0005,0.004,0.0042,0.0044,0.0076,0.0082,0.0018,0.0018,0.0018,0.0019,0,-0.0384,-0.0388,-0.039,-0.0379,-0.0368,-0.0364,-0.0326,-0.0305,-0.0278,-0.0246,-0.0201,-0.0142,-0.0093,-0.0073,-0.0044,-0.0005,0.0006,0.0026,0.0044,0.0043,0.0076,0.0083,0.0015,0.0015,0.0016,0.0017,0,0,-0.0411,-0.0409,-0.041,-0.0418,-0.0393,-0.0386,-0.0366,-0.0334,-0.0318,-0.0268,-0.0241,-0.0176,-0.0142,-0.011,-0.0064,-0.0022,0.0016,0.0005,0.0008,0.0028,0.0105,0.0137,0.0148,0.0041,0.0042,0.0043,0.0118,0,-0.0439,-0.0467,-0.045,-0.0467,-0.0478,-0.0437,-0.0427,-0.039,-0.0344,-0.0304,-0.0233,-0.0192,-0.0155,-0.0131,-0.0083,-0.0005,0.0033,-0.0007,0.011,0.0113,0.0137,0.0157,0.0137,0.0206,0.0125,0.0126,0.0127,0,-0.0467,-0.0485,-0.0517,-0.0523,-0.0522,-0.0522,-0.0494,-0.0473,-0.04,-0.0366,-0.0303,-0.0245,-0.0169,-0.0142,-0.0016,-0.0044,0.0021,0.0079,0.0084,0.0136,0.0159,0.0197,0.0222,0.0139,0.0138,0.0137,0.0137,0,-0.0511,-0.0527,-0.056,-0.0561,-0.0558,-0.056,-0.0548,-0.0495,-0.0475,-0.0396,-0.0369,-0.0274,-0.0219,-0.0126,-0.0001,-0.0009,0.0136,0.0143,0.0231,0.0233,0.0252,0.0255,0.0223,0.0223,0.0223,0.0222,0.0222,0,-0.0551,-0.0573,-0.0584,-0.0603,-0.0637,-0.061,-0.0615,-0.0583,-0.053,-0.05,-0.0404,-0.0353,-0.0212,-0.0107,-0.0008,0.014,0.0134,0.0233,0.0262,0.0234,0.0234,0.0205,0.0202,0.0225,0.0225,0.0224,0.0224,0,-0.0594,-0.0601,-0.0639,-0.0654,-0.0661,-0.0681,-0.0672,-0.0667,-0.0607,-0.056,-0.0538,-0.0404,-0.0258,-0.0116,0.0052,0.0137,0.0268,0.0317,0.027,0.0292,0.0332,0.0325,0.0419,0.0421,0.0422,0.0424,0.0425,0,-0.0619,-0.0645,-0.0687,-0.0715,-0.0725,-0.0745,-0.076,-0.0716,-0.0698,-0.0584,-0.0564,-0.0412,-0.0282,-0.0023,0.015,0.0333,0.0321,0.0406,0.0394,0.0337,0.0355,0.0346,0.0337,0.0394,0.0394,0.0395,0.0396,0,-0.0665,-0.068,-0.0714,-0.078,-0.081,-0.0835,-0.0841,-0.0838,-0.0765,-0.0697,-0.0571,-0.0452,-0.0191,0.0033,0.0263,0.0356,0.0377,0.0426,0.0395,0.0347,0.032,0.0335,0.0327,0.0401,0.0401,0.04,0.04,0.04,-0.0693,-0.0733,-0.0782,-0.0839,-0.0878,-0.0908,-0.0913,-0.0879,-0.0829,-0.0688,-0.0582,-0.0353,-0.0162,0.0204,0.034,0.0464,0.0461,0.0485,0.0481,0.0476,0.046,0.0437,0.0536,0.0536,0.0537,0.0537,0.0537,0,-0.0726,-0.0774,-0.0837,-0.09,-0.0946,-0.0951,-0.0953,-0.0914,-0.083,-0.0659,-0.0497,-0.0236,0.0017,0.0213,0.0429,0.0543,0.0511,0.0541,0.0481,0.0475,0.047,0.0451,0.0527,0.0527,0.0527,0.0528,0,0,-0.0745,-0.0814,-0.0852,-0.0939,-0.0978,-0.1001,-0.0992,-0.0899,-0.0767,-0.0574,-0.0378,-0.0159,0.0077,0.0223,0.035,0.0456,0.0428,0.0451,0.0447,0.0354,0.0348,0.0429,0.0392,0,0,0,0,0]}],[{"header":{"parameterUnit":"m.s-1","parameterCategory":2,"la1":30.2991,"la2":30.254,"lo1":-89.0895,"lo2":-89.0444,"dy":0.0017,"dx":0.0017,"nx":28,"ny":28,"refTime":"2023-08-31T21:00:00:Z","depth":"4","parameterNumber":2,"parameterNumberName":"U-component_of_CURRENTS"},"data":[0,0,0,0,0,0,0,0,0,0,0,0,0,0,0,0,0,0,0,0,0,0,0,0,0,0,0,0,0,0,0,0,0,0,0,0,0,0,0,0,0,0,0,0,0,0,0,0,0,0,0,0,0,0,0,0,0,0,-0.1441,-0.1441,0,-0.1484,-0.1485,-0.1485,-0.1518,-0.1518,-0.1519,-0.1519,-0.1547,-0.1548,-0.1548,0,0,0,0,0,0,0,0,0,0,0,0,0,-0.1386,-0.1387,-0.1441,-0.1441,-0.1442,-0.1484,-0.1485,-0.1485,-0.1518,-0.1518,-0.1519,-0.1519,-0.1547,-0.1548,-0.1548,0,0,0,0,0,0,0,0,0,0,0,0,0,-0.1417,-0.1387,-0.1441,-0.1464,-0.1467,-0.1484,-0.1485,-0.1486,-0.1518,-0.1518,-0.1519,-0.152,-0.1547,-0.1548,-0.1548,-0.1539,0,0,-0.155,-0.155,0,0,0,0,0,0,0,0,-0.1415,-0.1418,-0.146,-0.1463,-0.1466,-0.1498,-0.1476,-0.1503,-0.1518,-0.1497,-0.1519,-0.152,-0.153,-0.1532,-0.1537,-0.1541,-0.1542,-0.155,-0.155,-0.1551,-0.1551,0,0,0,0,0,0,0,-0.1413,-0.1417,-0.1457,-0.1461,-0.1464,-0.1473,-0.1478,-0.1481,-0.1508,-0.1499,-0.1502,-0.1509,-0.1531,-0.1536,-0.1538,-0.1542,-0.155,-0.155,-0.1551,-0.1551,-0.1609,-0.161,0,0,0,0,0,0,-0.1409,-0.1415,-0.1455,-0.1458,-0.1443,-0.1474,-0.1479,-0.1486,-0.1509,-0.1513,-0.1508,-0.151,-0.1535,-0.1537,-0.1539,-0.1588,-0.1551,-0.1551,-0.1551,-0.1608,-0.1609,-0.161,0,0,0,0,0,0,-0.1408,-0.1412,-0.1454,-0.1438,-0.1445,-0.1474,-0.1481,-0.1486,-0.1516,-0.1516,-0.152,-0.1535,-0.1536,-0.1538,-0.1568,-0.1587,-0.1551,-0.1552,-0.1606,-0.1608,-0.161,-0.1647,0,0,0,0,0,0,-0.1406,-0.1412,-0.1426,-0.1438,-0.1445,-0.1477,-0.1481,-0.1487,-0.1518,-0.1522,-0.154,-0.1542,-0.1536,-0.1567,-0.1568,-0.1587,-0.1552,-0.1605,-0.1607,-0.1609,-0.1645,-0.165,-0.1655,0,0,0,0,0,-0.1404,-0.1415,-0.1426,-0.1432,-0.146,-0.1478,-0.1483,-0.1504,-0.1519,-0.1533,-0.1553,-0.1543,-0.1582,-0.1569,-0.157,-0.1589,-0.1604,-0.1606,-0.1609,-0.1642,-0.1649,-0.1655,0,0,0,0,0,0,-0.1399,-0.142,-0.1432,-0.1451,-0.1471,-0.1484,-0.1503,-0.1518,-0.1545,-0.1556,-0.1557,-0.1561,-0.1593,-0.1588,-0.1573,-0.1613,-0.1591,-0.1594,-0.1616,-0.1623,-0.1628,-0.1625,-0.1553,0,0,0,0,0,-0.1405,-0.142,-0.144,-0.1457,-0.1469,-0.1492,-0.1507,-0.1523,-0.1543,-0.1557,-0.1571,-0.1588,-0.16,-0.1611,-0.162,-0.1641,-0.1625,-0.1655,-0.1661,-0.1665,-0.1665,-0.1663,-0.1667,-0.1619,-0.1619,-0.1619,0,0,-0.1408,-0.1422,-0.1432,-0.1458,-0.1476,-0.1498,-0.1503,-0.1532,-0.1557,-0.1554,-0.1599,-0.1607,-0.1611,-0.1637,-0.1651,-0.1639,-0.167,-0.1668,-0.1672,-0.1669,-0.1666,-0.167,-0.1674,-0.1621,-0.1621,-0.1621,0,0,-0.1412,-0.1436,-0.1449,-0.1469,-0.1501,-0.1517,-0.1531,-0.1561,-0.1584,-0.1621,-0.1627,-0.1651,-0.1674,-0.168,-0.1684,-0.1724,-0.1698,-0.1731,-0.1754,-0.1752,-0.1755,-0.1758,-0.1738,-0.1738,-0.1732,-0.1733,-0.1733,0,-0.1418,-0.1436,-0.1456,-0.1475,-0.1498,-0.1529,-0.1551,-0.1577,-0.1616,-0.1634,-0.1642,-0.1686,-0.1692,-0.1715,-0.1733,-0.1734,-0.1723,-0.1728,-0.1757,-0.176,-0.1762,-0.174,-0.1741,-0.1735,-0.1734,-0.1734,-0.1734,0,-0.1422,-0.1452,-0.1464,-0.1499,-0.1525,-0.1552,-0.1588,-0.1623,-0.1657,-0.1677,-0.1719,-0.1731,-0.1753,-0.1763,-0.1761,-0.1785,-0.1768,-0.1763,-0.1737,-0.1769,-0.1744,-0.1744,-0.1738,-0.1737,-0.1736,-0.1736,0,0,-0.1393,-0.1456,-0.1462,-0.1489,-0.1544,-0.1562,-0.1613,-0.1656,-0.1689,-0.1728,-0.1761,-0.1792,-0.18,-0.1805,-0.1808,-0.1811,-0.1819,-0.1799,-0.1798,-0.1772,-0.1803,-0.1679,-0.1666,-0.182,-0.1821,-0.1821,-0.1777,0,-0.1394,-0.1434,-0.1467,-0.1517,-0.1543,-0.1594,-0.1636,-0.1682,-0.1722,-0.1763,-0.1783,-0.1813,-0.1815,-0.1829,-0.1835,-0.1827,-0.1821,-0.1831,-0.1783,-0.1781,-0.1661,-0.1662,-0.1822,-0.1776,-0.1776,-0.1776,-0.1776,0,-0.1379,-0.1413,-0.1461,-0.1533,-0.155,-0.1588,-0.1661,-0.1701,-0.176,-0.1789,-0.1823,-0.1839,-0.1861,-0.1854,-0.1849,-0.1856,-0.1833,-0.182,-0.1818,-0.1686,-0.1655,-0.1741,-0.1775,-0.1775,-0.1775,-0.1775,-0.1775,0,-0.1335,-0.1406,-0.1448,-0.1473,-0.1557,-0.1595,-0.1642,-0.171,-0.1745,-0.1805,-0.1828,-0.1858,-0.187,-0.1861,-0.1839,-0.1849,-0.1815,-0.1821,-0.1682,-0.1673,-0.1783,-0.178,-0.1804,-0.1804,-0.1804,-0.1804,-0.1804,0,-0.1308,-0.1343,-0.1438,-0.1459,-0.1512,-0.1579,-0.1637,-0.1687,-0.1754,-0.1776,-0.1836,-0.1843,-0.1874,-0.1861,-0.184,-0.1746,-0.1811,-0.1675,-0.1651,-0.1799,-0.1799,-0.1782,-0.178,-0.1803,-0.1803,-0.1803,-0.1804,0,-0.1243,-0.1309,-0.1361,-0.1459,-0.1493,-0.1529,-0.1626,-0.1656,-0.1733,-0.1763,-0.1781,-0.1833,-0.1804,-0.1807,-0.178,-0.1723,-0.1664,-0.1613,-0.1757,-0.1744,-0.1525,-0.1526,-0.1454,-0.1449,-0.1445,-0.1441,-0.1439,0,-0.1209,-0.1233,-0.1342,-0.1373,-0.1421,-0.1491,-0.1531,-0.1629,-0.1654,-0.1733,-0.1726,-0.174,-0.1751,-0.1604,-0.1632,-0.1561,-0.1543,-0.1506,-0.1528,-0.1504,-0.1488,-0.1495,-0.1501,-0.1432,-0.1431,-0.143,-0.1429,0,-0.1137,-0.1189,-0.123,-0.1296,-0.135,-0.1397,-0.1463,-0.1475,-0.1566,-0.1653,-0.1612,-0.1584,-0.1542,-0.1509,-0.1455,-0.1415,-0.1532,-0.1464,-0.1473,-0.1492,-0.1477,-0.1467,-0.1478,-0.1415,-0.1417,-0.1418,-0.1419,0,-0.1079,-0.109,-0.1151,-0.1193,-0.1258,-0.1275,-0.1331,-0.135,-0.1387,-0.1482,-0.1459,-0.1472,-0.1518,-0.143,-0.1387,-0.1328,-0.1312,-0.1277,-0.1295,-0.1311,-0.1284,-0.1245,-0.1077,0,0,0,0,0,-0.1009,-0.1007,-0.1041,-0.1082,-0.1141,-0.1172,-0.1265,-0.1324,-0.1421,-0.1346,-0.1398,-0.1349,-0.1282,-0.1298,-0.1202,-0.1325,-0.1322,-0.121,-0.1293,-0.1336,-0.1352,-0.1334,0,0,0,0,0,0,-0.0963,-0.0987,-0.0999,-0.0971,-0.0975,-0.1022,-0.1074,-0.1146,-0.1119,-0.1219,-0.1185,-0.1254,-0.1206,-0.1292,-0.1164,-0.1167,-0.119,-0.1228,-0.1224,-0.1327,-0.1342,-0.1355,-0.1342,0,0,0,0,0]},{"header":{"parameterUnit":"m.s-1","parameterCategory":2,"la1":30.2991,"la2":30.254,"lo1":-89.0895,"lo2":-89.0444,"dy":0.0017,"dx":0.0017,"nx":28,"ny":28,"refTime":"2023-08-31T21:00:00:Z","depth":"4","parameterNumber":3,"parameterNumberName":"V-component_of_CURRENTS"},"data":[0,0,0,0,0,0,0,0,0,0,0,0,0,0,0,0,0,0,0,0,0,0,0,0,0,0,0,0,0,0,0,0,0,0,0,0,0,0,0,0,0,0,0,0,0,0,0,0,0,0,0,0,0,0,0,0,0,0,-0.0213,-0.0213,0,-0.0175,-0.0174,-0.0174,-0.015,-0.015,-0.015,-0.015,-0.0076,-0.0075,-0.0073,0,0,0,0,0,0,0,0,0,0,0,0,0,-0.0235,-0.0235,-0.0213,-0.0213,-0.0212,-0.0175,-0.0174,-0.0174,-0.015,-0.015,-0.015,-0.015,-0.0077,-0.0075,-0.0072,0,0,0,0,0,0,0,0,0,0,0,0,0,-0.0214,-0.0235,-0.0213,-0.0197,-0.0195,-0.0175,-0.0174,-0.0173,-0.015,-0.015,-0.015,-0.015,-0.0078,-0.0075,-0.0072,-0.0056,0,0,-0.0063,-0.0062,0,0,0,0,0,0,0,0,-0.0215,-0.0213,-0.0199,-0.0198,-0.0196,-0.0168,-0.0155,-0.0133,-0.015,-0.0166,-0.015,-0.015,-0.0104,-0.0099,-0.0092,-0.0053,-0.005,-0.0063,-0.0061,-0.006,-0.0059,0,0,0,0,0,0,0,-0.0217,-0.0214,-0.0197,-0.0199,-0.0197,-0.018,-0.0178,-0.0151,-0.0135,-0.0165,-0.0163,-0.016,-0.0103,-0.0095,-0.009,-0.0049,-0.0063,-0.0061,-0.0059,-0.0058,0.0014,0.0014,0,0,0,0,0,0,-0.0224,-0.0216,-0.0198,-0.0196,-0.0206,-0.018,-0.0177,-0.0176,-0.0136,-0.013,-0.016,-0.0159,-0.0099,-0.0093,-0.0087,-0.0065,-0.006,-0.0058,-0.0056,0.0014,0.0014,0.0014,0,0,0,0,0,0,-0.0225,-0.0223,-0.02,-0.0205,-0.0201,-0.018,-0.0179,-0.0176,-0.017,-0.0133,-0.0126,-0.016,-0.0099,-0.0091,-0.0064,-0.0062,-0.0056,-0.0054,0.0014,0.0014,0.0014,-0.002,0,0,0,0,0,0,-0.0226,-0.0224,-0.0229,-0.0206,-0.0201,-0.0193,-0.0179,-0.0175,-0.0168,-0.0167,-0.013,-0.0123,-0.0098,-0.0069,-0.0061,-0.0058,-0.0051,0.0013,0.0014,0.0014,-0.0019,-0.0021,-0.0023,0,0,0,0,0,-0.0227,-0.0233,-0.0229,-0.0227,-0.0208,-0.0193,-0.0189,-0.0173,-0.0169,-0.0168,-0.0142,-0.0124,-0.0061,-0.0066,-0.0058,-0.0053,0.0013,0.0014,0.0014,-0.0019,-0.0021,-0.0023,0,0,0,0,0,0,-0.0245,-0.0231,-0.0226,-0.0228,-0.0214,-0.0189,-0.0189,-0.0178,-0.0157,-0.0156,-0.0121,-0.0112,-0.009,-0.0066,-0.0072,-0.0031,-0.0021,-0.0019,-0.0049,-0.0051,-0.0052,-0.0062,-0.0049,0,0,0,0,0,-0.0252,-0.0254,-0.0235,-0.0238,-0.0233,-0.0213,-0.0206,-0.0195,-0.0173,-0.0165,-0.0138,-0.0108,-0.0081,-0.0062,-0.0038,-0.0012,0.0013,-0.0003,-0.0005,-0.0007,-0.0009,0.0035,0.0038,0.0016,0.0016,0.0016,0,0,-0.026,-0.0253,-0.0254,-0.0242,-0.0231,-0.0227,-0.0208,-0.0202,-0.0195,-0.0159,-0.0143,-0.0116,-0.0077,-0.0052,-0.0039,-0.0031,0.0012,-0.0006,-0.0008,-0.0009,0.0036,0.0038,0.004,0.0016,0.0016,0.0016,0,0,-0.0276,-0.0271,-0.0278,-0.027,-0.0257,-0.0242,-0.0243,-0.022,-0.0208,-0.0189,-0.0161,-0.0132,-0.0093,-0.006,-0.004,-0.0034,-0.0003,-0.0028,-0.0037,0.0005,0.0008,0.001,0.0038,0.0043,-0.0023,-0.0023,-0.0023,0,-0.0287,-0.0293,-0.0277,-0.028,-0.0279,-0.0252,-0.0258,-0.0239,-0.021,-0.0197,-0.019,-0.0128,-0.0096,-0.0056,-0.0054,-0.0038,-0.0014,-0.0034,0.0003,0.0006,0.0008,0.0037,0.0043,-0.0024,-0.0024,-0.0024,-0.0024,0,-0.0304,-0.0312,-0.0315,-0.0312,-0.0307,-0.0307,-0.0282,-0.0269,-0.0252,-0.0229,-0.0194,-0.0149,-0.011,-0.0094,-0.0072,-0.0034,-0.0025,-0.001,0.0005,0.0008,0.0039,0.0046,-0.0027,-0.0026,-0.0026,-0.0025,0,0,-0.0322,-0.0328,-0.0331,-0.0339,-0.0326,-0.0324,-0.0311,-0.0289,-0.0279,-0.0242,-0.0222,-0.017,-0.0144,-0.0118,-0.0082,-0.0041,-0.0002,-0.002,-0.0017,0.0003,0.0083,0.008,0.0087,0.002,0.0022,0.0022,0.0094,0,-0.0342,-0.0367,-0.0359,-0.0376,-0.0386,-0.0361,-0.0356,-0.0331,-0.0299,-0.0269,-0.0212,-0.0181,-0.0152,-0.0134,-0.0088,-0.0022,0.0016,-0.0023,0.0082,0.0085,0.0078,0.0095,0.0026,0.0099,0.0101,0.0102,0.0103,0,-0.036,-0.0377,-0.0407,-0.0418,-0.042,-0.0425,-0.041,-0.0396,-0.0342,-0.0316,-0.0266,-0.0221,-0.0154,-0.0134,-0.002,-0.0047,0.0011,0.0061,0.0066,0.008,0.0094,0.0099,0.0116,0.0115,0.0114,0.0113,0.0112,0,-0.0388,-0.0407,-0.0437,-0.0441,-0.0448,-0.0455,-0.0452,-0.0415,-0.0402,-0.034,-0.0319,-0.0238,-0.0192,-0.0109,-0.0003,-0.001,0.0121,0.0127,0.0177,0.0178,0.0173,0.017,0.0202,0.0202,0.0202,0.0202,0.0202,0,-0.041,-0.0432,-0.0457,-0.0473,-0.0508,-0.0494,-0.0506,-0.0485,-0.0446,-0.0423,-0.0347,-0.0304,-0.0183,-0.0091,-0.0006,0.0109,0.0122,0.0178,0.02,0.0156,0.015,0.0178,0.0174,0.0205,0.0204,0.0204,0.0203,0,-0.0432,-0.0447,-0.0485,-0.0512,-0.0525,-0.0547,-0.0555,-0.0553,-0.051,-0.0473,-0.0455,-0.0344,-0.0221,-0.0101,0.0047,0.0107,0.0215,0.025,0.0189,0.0206,0.0239,0.0233,0.0308,0.0309,0.0309,0.031,0.031,0,-0.0444,-0.0468,-0.0523,-0.0554,-0.0572,-0.06,-0.062,-0.0594,-0.0578,-0.049,-0.047,-0.0348,-0.0263,-0.0049,0.0066,0.0226,0.0245,0.0289,0.0267,0.0239,0.0253,0.0245,0.0239,0.0311,0.0311,0.0311,0.0311,0,-0.0468,-0.0493,-0.0526,-0.0597,-0.0635,-0.0664,-0.0679,-0.0671,-0.0618,-0.0584,-0.046,-0.0338,-0.0196,-0.004,0.0086,0.0198,0.0254,0.0294,0.0294,0.0273,0.0243,0.0255,0.0247,0.0313,0.0313,0.0313,0.0312,0,-0.0484,-0.0518,-0.0571,-0.0627,-0.0679,-0.0705,-0.071,-0.0672,-0.0645,-0.0537,-0.0496,-0.0329,-0.0229,-0.0053,0.0064,0.0174,0.0193,0.0214,0.0218,0.0217,0.0166,0.0113,0.0167,0,0,0,0,0,-0.0494,-0.0537,-0.0596,-0.0655,-0.0706,-0.0732,-0.0738,-0.0725,-0.0672,-0.0587,-0.0534,-0.0394,-0.0187,-0.0093,0.0018,0.0046,0.0188,0.0175,0.0207,0.0322,0.032,0.0276,0,0,0,0,0,0,-0.0503,-0.0562,-0.0596,-0.0663,-0.0704,-0.0749,-0.0752,-0.0718,-0.0656,-0.0585,-0.0469,-0.0386,-0.0187,-0.025,0.0015,0.0049,0.008,0.0278,0.028,0.0323,0.0322,0.032,0.0274,0,0,0,0,0]}]]